Clearfield, PA

7:12 AM EDT on September 21, 2017 (GMT -0400)
Clearfield-Lawrence

Weather History for KFIG - August, 2013

Change the Weather History Date:

Thursday, August 22, 2013

  Actual Average (KDUJ) Record (KDUJ)
Temperature  
Mean Temperature 73 °F -  
Max Temperature 82 °F 76 °F 88 °F (1968)
Min Temperature 64 °F 55 °F 38 °F (1982)
Cooling Degree Days 8    
Growing Degree Days 23 (Base 50)    
Moisture  
Dew Point 66 °F    
Average Humidity 90    
Maximum Humidity 100    
Minimum Humidity 54    
Precipitation  
Precipitation 0.77 in - - ()
Sea Level Pressure  
Sea Level Pressure 30.05 in    
Wind  
Wind Speed 4 mph (SW)    
Max Wind Speed 13 mph    
Max Gust Speed 17 mph    
Visibility 6 miles    
Events Fog , Rain , Thunderstorm    
Averages and records for this station are not official NWS values.
T = Trace of Precipitation, MM = Missing Value Source: NWS Daily Summary

Daily Weather History Graph

Daily Weather History Graph

Search for Another Location

Airport or City:

Trip Planner

Search our weather history database for the weather conditions in past years. The results will help you decide how hot, cold, wet, or windy it might be!

Date:

Astronomy

Aug. 22, 2013 Rise Set
Actual Time 6:30 AM EDT 8:01 PM EDT
Civil Twilight 6:01 AM EDT 8:30 PM EDT
Nautical Twilight 5:26 AM EDT 9:05 PM EDT
Astronomical Twilight 4:49 AM EDT 9:42 PM EDT
Moon 8:42 PM EDT (8/22) 8:18 AM EDT (8/22)
Length of Visible Light 14h 28m
Length of Day
13h 31m
Waning Gibbous, 97% of the Moon is Illuminated
Aug 22
Waning Gibbous
Aug 28
Last Quarter
Sep 5
New
Sep 12
First Quarter
Sep 19
Full

Hourly Weather History & Observations

Time (EDT) Temp. Heat Index Dew Point Humidity Pressure Visibility Wind Dir Wind Speed Gust Speed Precip Events Conditions
12:54 AM 66.9 °F - 64.9 °F 93% 30.10 in 6.0 mi Calm Calm - N/A   Clear
1:54 AM 66.0 °F - 64.9 °F 96% 30.10 in 4.0 mi Calm Calm - N/A   Clear
2:54 AM 66.9 °F - 66.0 °F 97% 30.09 in 5.0 mi Calm Calm - N/A   Mostly Cloudy
3:54 AM 66.0 °F - 66.0 °F 100% 30.08 in 4.0 mi Calm Calm - N/A   Mostly Cloudy
4:52 AM 66.2 °F - 66.2 °F 100% 30.10 in 5.0 mi SW 4.6 mph - N/A   Mostly Cloudy
4:54 AM 66.0 °F - 66.0 °F 100% 30.07 in 5.0 mi Variable 3.5 mph - N/A   Mostly Cloudy
5:54 AM 64.9 °F - 64.9 °F 100% 30.06 in 4.0 mi South 3.5 mph - N/A   Overcast
6:00 AM 64.4 °F - 64.4 °F 100% 30.09 in 3.0 mi SSW 4.6 mph - N/A   Overcast
6:09 AM 64.4 °F - 64.4 °F 100% 30.09 in 3.0 mi SSW 5.8 mph - N/A   Overcast
6:33 AM 66.2 °F - 66.2 °F 100% 30.10 in 3.0 mi SSW 4.6 mph - N/A   Overcast
6:54 AM 66.0 °F - 66.0 °F 100% 30.07 in 3.0 mi SW 4.6 mph - N/A   Mostly Cloudy
7:05 AM 66.2 °F - 66.2 °F 100% 30.10 in 3.0 mi SW 4.6 mph - N/A   Scattered Clouds
7:22 AM 66.2 °F - 66.2 °F 100% 30.10 in 2.5 mi SSW 4.6 mph - N/A   Scattered Clouds
7:31 AM 66.2 °F - 66.2 °F 100% 30.10 in 3.0 mi SW 6.9 mph - N/A   Mostly Cloudy
7:54 AM 66.0 °F - 66.0 °F 100% 30.09 in 4.0 mi SW 5.8 mph - N/A   Overcast
8:54 AM 68.0 °F - 66.0 °F 93% 30.08 in 7.0 mi SW 6.9 mph - N/A   Overcast
9:03 AM 68.0 °F - 66.2 °F 94% 30.10 in 7.0 mi South 5.8 mph - N/A   Overcast
9:22 AM 66.2 °F - 64.4 °F 94% 30.10 in 8.0 mi SW 9.2 mph - N/A   Overcast
9:39 AM 66.2 °F - 64.4 °F 94% 30.11 in 7.0 mi SSW 8.1 mph - N/A   Overcast
9:54 AM 66.9 °F - 64.9 °F 93% 30.10 in 7.0 mi SW 6.9 mph - N/A   Overcast
10:18 AM 68.0 °F - 66.2 °F 94% 30.12 in 8.0 mi SSW 6.9 mph - N/A   Overcast
10:54 AM 72.0 °F - 66.0 °F 81% 30.09 in 10.0 mi SSW 6.9 mph - N/A   Overcast
11:16 AM 71.6 °F - 64.4 °F 78% 30.10 in 10.0 mi Variable 4.6 mph - N/A   Mostly Cloudy
11:54 AM 73.9 °F - 66.0 °F 76% 30.07 in 10.0 mi South 9.2 mph - N/A   Mostly Cloudy
12:06 PM 75.2 °F - 66.2 °F 73% 30.09 in 10.0 mi SW 9.2 mph - N/A   Scattered Clouds
12:23 PM 75.2 °F - 66.2 °F 73% 30.09 in 10.0 mi SW 6.9 mph - N/A   Mostly Cloudy
12:54 PM 78.1 °F - 66.9 °F 68% 30.05 in 10.0 mi WSW 9.2 mph - N/A   Mostly Cloudy
1:08 PM 78.8 °F - 66.2 °F 65% 30.07 in 10.0 mi WSW 8.1 mph - N/A   Mostly Cloudy
1:54 PM 80.1 °F 82.1 °F 66.0 °F 62% 30.03 in 10.0 mi WSW 10.4 mph - N/A   Scattered Clouds
2:54 PM 81.0 °F 82.5 °F 64.0 °F 56% 29.99 in 10.0 mi WSW 11.5 mph 17.3 mph N/A   Partly Cloudy
3:23 PM 82.4 °F 83.9 °F 64.4 °F 54% 30.01 in 10.0 mi WSW 8.1 mph - N/A Thunderstorm Scattered Clouds
3:54 PM 77.0 °F - 66.9 °F 71% 29.98 in 10.0 mi WSW 6.9 mph - 0.00 in Rain , Thunderstorm Light Rain
4:12 PM 78.8 °F - 68.0 °F 69% 30.00 in 10.0 mi SW 6.9 mph - 0.00 in   Scattered Clouds
4:54 PM 79.0 °F - 68.0 °F 69% 29.97 in 10.0 mi WSW 10.4 mph - 0.00 in   Partly Cloudy
5:54 PM 78.1 °F - 66.0 °F 66% 29.96 in 10.0 mi WSW 12.7 mph 17.3 mph N/A   Partly Cloudy
6:47 PM 77.0 °F - 68.0 °F 74% 29.99 in 10.0 mi WSW 12.7 mph - N/A Thunderstorm Partly Cloudy
6:54 PM 77.0 °F - 68.0 °F 74% 29.96 in 10.0 mi WSW 8.1 mph - N/A Thunderstorm Thunderstorm
7:28 PM 69.8 °F - 68.0 °F 94% 30.00 in 1.0 mi East 9.2 mph - 0.43 in Rain , Thunderstorm Heavy Thunderstorms and Rain
7:37 PM 69.8 °F - 69.8 °F 100% 30.01 in 0.8 mi NW 6.9 mph - 0.64 in Rain , Thunderstorm Heavy Thunderstorms and Rain
7:42 PM 69.8 °F - 69.8 °F 100% 30.02 in 1.0 mi Variable 4.6 mph - 0.69 in Rain , Thunderstorm Heavy Thunderstorms and Rain
7:54 PM 69.1 °F - 68.0 °F 96% 29.99 in 1.2 mi Calm Calm - 0.77 in Rain , Thunderstorm Light Thunderstorms and Rain
7:57 PM 69.8 °F - 68.0 °F 94% 30.02 in 4.0 mi WSW 8.1 mph - 0.00 in Rain , Thunderstorm Light Thunderstorms and Rain
8:22 PM 68.0 °F - 68.0 °F 100% 30.03 in 8.0 mi SSW 4.6 mph - 0.00 in   Partly Cloudy
8:47 PM 66.2 °F - 66.2 °F 100% 30.03 in 1.8 mi North 4.6 mph - 0.00 in   Partly Cloudy
8:54 PM 66.9 °F - 66.9 °F 100% 30.01 in 1.2 mi Calm Calm - 0.00 in   Partly Cloudy
8:58 PM 66.2 °F - 66.2 °F 100% 30.03 in 4.0 mi North 3.5 mph - N/A   Partly Cloudy
9:21 PM 66.2 °F - 66.2 °F 100% 30.04 in 2.5 mi Calm Calm - N/A   Clear
9:28 PM 66.2 °F - 66.2 °F 100% 30.04 in 5.0 mi Calm Calm - N/A   Clear
9:54 PM 66.9 °F - 66.9 °F 100% 30.02 in 7.0 mi Calm Calm - N/A   Clear
10:29 PM 66.2 °F - 66.2 °F 100% 30.04 in 1.8 mi Calm Calm - N/A   Partly Cloudy
10:54 PM 66.0 °F - 66.0 °F 100% 30.02 in 3.0 mi Calm Calm - N/A   Partly Cloudy
10:58 PM 64.4 °F - 64.4 °F 100% 30.04 in 1.5 mi Calm Calm - N/A   Partly Cloudy
11:04 PM 64.4 °F - 64.4 °F 100% 30.04 in 0.2 mi Calm Calm - N/A Fog Fog
11:48 PM 64.4 °F - 64.4 °F 100% 30.05 in 1.0 mi SW 3.5 mph - N/A   Mist
11:52 PM 64.4 °F - 64.4 °F 100% 30.05 in 2.5 mi Calm Calm - N/A   Mostly Cloudy
11:54 PM 64.9 °F - 64.9 °F 100% 30.03 in 4.0 mi Calm Calm - N/A   Mostly Cloudy
11:56 PM 64.4 °F - 64.4 °F 100% 30.05 in 1.2 mi Variable 3.5 mph - N/A   Mostly Cloudy